This demonstration page uses our WeatherBlox Daily Observations layout. Learn more.

39.92423, -83.80882

Hourly Observations for June 3, 2019

Temp ( °F °C ) Dew Point ( °F °C ) Humidity (%) Winds ( mph kmh ) Pressure ( in mb ) Visibility ( mi km ) Precip ( " mm )
12:56 am 00:56 Clear 53 11.7 39 3.9 59 59 NW 6 9 29.99 1016 10 16.0934 0 0
1:56 am 01:56 Clear 52 11.1 41 5 66 66 WNW 5 7 30 1016 10 16.0934 0 0
2:56 am 02:56 Clear 50 10 41 5 71 71 NW 5 7 30.01 1016 10 16.0934 0 0
3:56 am 03:56 Clear 50 10 41 5 71 71 NW 5 7 30.01 1016 10 16.0934 0 0
4:56 am 04:56 Clear 48 8.9 43 6.1 83 83 Calm 30.04 1017 10 16.0934 0 0
5:56 am 05:56 Clear 47 8.3 45 7.2 93 93 W 3 6 30.06 1018 10 16.0934 0 0
6:56 am 06:56 Sunny 49 9.4 45 7.2 86 86 Calm 30.09 1019 10 16.0934 0 0
7:56 am 07:56 Sunny 53 11.7 44 6.7 72 72 NNE 6 9 30.1 1019 10 16.0934 0 0
8:56 am 08:56 Sunny 57 13.9 45 7.2 64 64 NE 12 19 30.11 1020 10 16.0934 0 0
9:56 am 09:56 Sunny 60 15.6 46 7.8 60 60 NE 7 11 30.14 1021 10 16.0934 0 0
10:56 am 10:56 Sunny 62 16.7 45 7.2 54 54 Calm 30.15 1021 10 16.0934 0 0
11:56 am 11:56 Sunny 65 18.3 45 7.2 49 49 VRB 6 9 30.17 1022 10 16.0934 0 0
12:56 pm 12:56 Sunny 66 18.9 46 7.8 49 49 WNW 10 17 30.15 1021 10 16.0934 0 0
1:56 pm 13:56 Mostly Sunny 67 19.4 46 7.8 47 47 VRB 3 6 30.13 1020 10 16.0934 0 0
2:56 pm 14:56 Sunny 69 20.6 46 7.8 44 44 NNW 8 13 30.14 1021 10 16.0934 0 0
3:56 pm 15:56 Sunny 69 20.6 45 7.2 42 42 WNW 8 13 30.13 1020 10 16.0934 0 0
4:56 pm 16:56 Sunny 69 20.6 45 7.2 42 42 NW 6 9 30.13 1020 10 16.0934 0 0
5:56 pm 17:56 Sunny 70 21.1 45 7.2 41 41 WNW 6 9 30.13 1020 10 16.0934 0 0
6:56 pm 18:56 Sunny 68 20 45 7.2 44 44 NW 7 11 30.11 1020 10 16.0934 0 0
7:56 pm 19:56 Sunny 66 18.9 46 7.8 49 49 N 5 7 30.11 1020 10 16.0934 0 0
8:56 pm 20:56 Sunny 64 17.8 45 7.2 50 50 NE 3 6 30.11 1020 10 16.0934 0 0
9:56 pm 21:56 Clear 60 15.6 52 11.1 75 75 SSE 3 6 30.12 1020 10 16.0934 0 0
10:56 pm 22:56 Clear 59 15 50 10 72 72 Calm 30.14 1021 10 16.0934 0 0
11:56 pm 23:56 Clear 56 13.3 52 11.1 87 87 E 3 6 30.14 1021 10 16.0934 0 0

Powered by AerisWeather